Location: Bushey
(51.6333°N, 0.3667°W)
Time: 19:07:16
(UTC+00:00)

Cosmos 2322 Rocket - Pass Details

Date: 03 March 2021
Orbit: 832 x 852 km, 71.0° (Epoch: 17 April)

Event Time Altitude Azimuth Distance (km) Brightness Sun altitude
Rises 20:52:39 0° 254° (WSW) 3,375 5.9 -28.9°
Reaches altitude 10° 20:55:32 10° 268° (W) 2,445 5.3 -29.3°
Maximum altitude 21:00:04 24° 322° (NW) 1,655 4.3 -29.9°
Drops below altitude 10° 21:04:37 10° 16° (NNE) 2,462 4.8 -30.5°
Sets 21:07:33 0° 30° (NNE) 3,403 5.4 -30.9°
